Time,TemperatureF,DewpointF,PressureIn,WindDirection,WindDirectionDegrees,WindSpeedMPH,WindSpeedGustMPH,Humidity,HourlyPrecipIn,Conditions,Clouds,dailyrainin,SoftwareType,DateUTC
2013-04-30 00:00:00,57.5,45.8,30.05,SE,142,2.0,2.0,65,0.00,,,0.00,Wunderground v.1.13,2013-04-30 04:00:00,
2013-04-30 00:30:00,57.3,46.0,30.05,SSE,167,2.0,9.0,66,0.00,,,0.00,Wunderground v.1.13,2013-04-30 04:30:00,
2013-04-30 01:00:00,57.2,46.3,30.06,South,169,1.0,9.0,67,0.00,,,0.00,Wunderground v.1.13,2013-04-30 05:00:00,
2013-04-30 01:30:00,57.0,46.1,30.06,South,169,0.0,9.0,67,0.00,,,0.00,Wunderground v.1.13,2013-04-30 05:30:00,
2013-04-30 02:00:00,56.7,46.3,30.06,South,169,0.0,9.0,68,0.00,,,0.00,Wunderground v.1.13,2013-04-30 06:00:00,
2013-04-30 02:30:00,56.6,46.5,30.06,SSE,168,0.0,9.0,69,0.00,,,0.00,Wunderground v.1.13,2013-04-30 06:30:00,
2013-04-30 03:00:00,56.3,46.3,30.06,South,169,0.0,9.0,69,0.00,,,0.00,Wunderground v.1.13,2013-04-30 07:00:00,
2013-04-30 03:30:00,56.2,46.9,30.07,South,169,1.0,9.0,71,0.00,,,0.00,Wunderground v.1.13,2013-04-30 07:30:00,
2013-04-30 04:00:00,55.1,48.4,30.08,South,169,0.0,9.0,78,0.00,,,0.00,Wunderground v.1.13,2013-04-30 08:00:00,
2013-04-30 04:30:00,54.8,48.4,30.08,South,169,0.0,9.0,79,0.00,,,0.00,Wunderground v.1.13,2013-04-30 08:30:00,
2013-04-30 05:00:00,54.5,48.8,30.09,South,169,0.0,9.0,81,0.00,,,0.00,Wunderground v.1.13,2013-04-30 09:00:00,
2013-04-30 05:30:00,53.9,49.5,30.10,South,169,0.0,9.0,85,0.00,,,0.00,Wunderground v.1.13,2013-04-30 09:30:00,
2013-04-30 06:00:00,53.6,49.8,30.10,South,169,0.0,9.0,87,0.00,,,0.00,Wunderground v.1.13,2013-04-30 10:00:00,
2013-04-30 06:30:00,53.8,50.0,30.11,South,169,0.0,9.0,87,0.00,,,0.01,Wunderground v.1.13,2013-04-30 10:30:00,
2013-04-30 07:00:00,53.3,50.4,30.12,South,169,0.0,9.0,90,0.00,,,0.02,Wunderground v.1.13,2013-04-30 11:00:00,
2013-04-30 07:30:00,53.6,51.3,30.13,South,169,0.0,9.0,92,0.00,,,0.02,Wunderground v.1.13,2013-04-30 11:30:00,
2013-04-30 08:00:00,54.1,51.2,30.14,South,169,0.0,9.0,90,0.00,,,0.02,Wunderground v.1.13,2013-04-30 12:00:00,
2013-04-30 08:30:00,54.8,52.2,30.14,South,169,0.0,9.0,91,0.00,,,0.02,Wunderground v.1.13,2013-04-30 12:30:00,
2013-04-30 09:00:00,56.0,52.8,30.14,South,169,0.0,0.0,89,0.00,,,0.02,Wunderground v.1.13,2013-04-30 13:00:00,
2013-04-30 09:30:00,56.7,52.2,30.14,South,169,0.0,0.0,85,0.00,,,0.02,Wunderground v.1.13,2013-04-30 13:30:00,
2013-04-30 10:00:00,58.0,51.5,30.14,South,169,0.0,0.0,79,0.00,,,0.02,Wunderground v.1.13,2013-04-30 14:00:00,
2013-04-30 10:30:00,59.0,52.1,30.14,SSE,168,0.0,0.0,78,0.00,,,0.02,Wunderground v.1.13,2013-04-30 14:30:00,
2013-04-30 11:00:00,61.2,52.1,30.14,SSE,168,0.0,0.0,72,0.00,,,0.02,Wunderground v.1.13,2013-04-30 15:00:00,
2013-04-30 11:30:00,63.2,51.6,30.13,SSE,156,0.0,0.0,66,0.00,,,0.02,Wunderground v.1.13,2013-04-30 15:30:00,
2013-04-30 12:00:00,66.0,50.8,30.13,SW,219,2.0,5.0,58,0.00,,,0.02,Wunderground v.1.13,2013-04-30 16:00:00,
2013-04-30 12:30:00,67.8,50.5,30.13,SW,220,2.0,2.0,54,0.00,,,0.02,Wunderground v.1.13,2013-04-30 16:30:00,
2013-04-30 13:00:00,68.3,52.0,30.13,WSW,250,2.0,3.0,56,0.00,,,0.02,Wunderground v.1.13,2013-04-30 17:00:00,
2013-04-30 13:30:00,66.8,52.0,30.12,North,9,3.0,3.0,59,0.00,,,0.02,Wunderground v.1.13,2013-04-30 17:30:00,
2013-04-30 14:00:00,67.9,51.6,30.12,NNE,26,1.0,1.0,56,0.00,,,0.02,Wunderground v.1.13,2013-04-30 18:00:00,
2013-04-30 14:30:00,69.4,51.5,30.12,North,5,1.0,1.0,53,0.00,,,0.02,Wunderground v.1.13,2013-04-30 18:30:00,
2013-04-30 15:00:00,68.1,50.8,30.13,NW,320,4.0,7.0,54,0.00,,,0.02,Wunderground v.1.13,2013-04-30 19:00:00,
2013-04-30 15:30:00,68.6,51.3,30.13,NNW,346,2.0,2.0,54,0.00,,,0.02,Wunderground v.1.13,2013-04-30 19:30:00,
2013-04-30 16:00:00,69.8,51.4,30.13,NNW,346,1.0,6.0,52,0.00,,,0.02,Wunderground v.1.13,2013-04-30 20:00:00,
2013-04-30 16:30:00,70.4,51.9,30.13,NNW,346,1.0,6.0,52,0.00,,,0.02,Wunderground v.1.13,2013-04-30 20:30:00,
2013-04-30 17:00:00,69.4,51.5,30.12,North,355,0.0,6.0,53,0.00,,,0.02,Wunderground v.1.13,2013-04-30 21:00:00,
2013-04-30 17:30:00,70.1,51.1,30.13,North,355,0.0,6.0,51,0.00,,,0.02,Wunderground v.1.13,2013-04-30 21:30:00,
2013-04-30 18:00:00,69.4,51.0,30.13,North,355,1.0,6.0,52,0.00,,,0.02,Wunderground v.1.13,2013-04-30 22:00:00,
2013-04-30 18:30:00,70.8,50.7,30.14,North,355,1.0,1.0,49,0.00,,,0.02,Wunderground v.1.13,2013-04-30 22:30:00,
2013-04-30 19:00:00,70.6,50.5,30.13,North,355,0.0,6.0,49,0.00,,,0.02,Wunderground v.1.13,2013-04-30 23:00:00,
2013-04-30 19:30:00,68.6,50.8,30.13,North,355,0.0,6.0,53,0.00,,,0.02,Wunderground v.1.13,2013-04-30 23:30:00,
2013-04-30 20:00:00,66.3,51.5,30.13,North,355,0.0,6.0,59,0.00,,,0.02,Wunderground v.1.13,2013-05-01 00:00:00,
2013-04-30 20:30:00,62.6,52.3,30.13,North,355,0.0,6.0,69,0.00,,,0.02,Wunderground v.1.13,2013-05-01 00:30:00,
2013-04-30 21:00:00,60.4,51.0,30.14,North,355,0.0,6.0,71,0.00,,,0.02,Wunderground v.1.13,2013-05-01 01:00:00,
2013-04-30 21:30:00,58.6,50.0,30.14,North,355,0.0,6.0,73,0.00,,,0.02,Wunderground v.1.13,2013-05-01 01:30:00,
2013-04-30 22:00:00,57.2,50.4,30.16,North,355,0.0,6.0,78,0.00,,,0.02,Wunderground v.1.13,2013-05-01 02:00:00,
2013-04-30 22:30:00,56.2,50.1,30.16,North,355,0.0,6.0,80,0.00,,,0.02,Wunderground v.1.13,2013-05-01 02:30:00,
2013-04-30 23:00:00,55.1,50.7,30.16,North,355,0.0,6.0,85,0.00,,,0.02,Wunderground v.1.13,2013-05-01 03:00:00,
2013-04-30 23:30:00,54.2,49.8,30.17,North,355,0.0,6.0,85,0.00,,,0.02,Wunderground v.1.13,2013-05-01 03:30:00,